Location: LDNL
(36.4545°S, 141.6685°E)
Time: 10:56:32
(UTC+10:00)

Vanguard 3 - Pass Details

Date: 03 February 2022
Orbit: 508 x 3258 km, 33.3° (Epoch: 25 May)

Event Time Altitude Azimuth Distance (km) Brightness Sun altitude
Rises 22:26:58 0° 313° (NW) 2,861 10.1 -19.1°
Reaches altitude 10° 22:29:02 10° 323° (NW) 2,123 9.3 -19.4°
Maximum altitude 22:33:28 36° 29° (NNE) 1,391 7.8 -20.1°
Enters shadow 22:33:40 36° 34° (NE) 1,410 7.8 -20.1°
Drops below altitude 10° 22:40:26 10° 92° (E) 3,372 - -21.2°
Sets 22:44:34 0° 99° (E) 4,840 - -21.8°
